TimeCDT,TemperatureF,Dew PointF,Humidity,Sea Level PressureIn,VisibilityMPH,Wind Direction,Wind SpeedMPH,Gust SpeedMPH,PrecipitationIn,Events,Conditions,WindDirDegrees,DateUTC
12:53 AM,62.1,57.9,86,29.98,10.0,East,13.8,-,0.00,,Overcast,80,2012-03-22 05:53:00
1:53 AM,62.1,57.9,86,29.96,10.0,ENE,9.2,-,0.00,,Overcast,70,2012-03-22 06:53:00
2:53 AM,61.0,57.9,90,29.94,10.0,NE,12.7,-,N/A,,Overcast,40,2012-03-22 07:53:00
3:53 AM,61.0,57.9,90,29.93,10.0,ENE,13.8,-,0.01,,Overcast,60,2012-03-22 08:53:00
4:53 AM,60.1,57.9,93,29.94,7.0,East,6.9,-,0.08,Rain,Light Rain,80,2012-03-22 09:53:00
5:53 AM,61.0,57.9,90,29.95,8.0,East,11.5,-,0.00,Rain,Light Rain,100,2012-03-22 10:53:00
6:53 AM,61.0,59.0,93,29.95,10.0,ESE,5.8,-,0.01,,Overcast,110,2012-03-22 11:53:00
7:53 AM,61.0,59.0,93,29.96,6.0,ESE,4.6,-,N/A,,Overcast,110,2012-03-22 12:53:00
8:08 AM,60.8,59.0,94,29.97,6.0,ESE,5.8,-,N/A,,Overcast,120,2012-03-22 13:08:00
8:53 AM,61.0,60.1,97,29.96,5.0,ESE,4.6,-,N/A,,Overcast,120,2012-03-22 13:53:00
9:41 AM,60.8,59.0,94,30.00,5.0,SSE,15.0,-,0.00,Rain,Light Rain,160,2012-03-22 14:41:00
9:50 AM,59.0,55.4,88,30.00,6.0,South,12.7,23.0,0.00,Rain,Light Rain,170,2012-03-22 14:50:00
9:53 AM,59.0,55.9,90,30.00,8.0,South,15.0,26.5,0.00,Rain,Light Rain,180,2012-03-22 14:53:00
9:58 AM,59.0,55.4,88,30.00,10.0,South,9.2,26.5,0.01,Rain,Light Rain,180,2012-03-22 14:58:00
10:25 AM,57.2,55.4,94,29.99,4.0,SE,4.6,-,0.03,Rain,Light Rain,140,2012-03-22 15:25:00
10:53 AM,59.0,57.0,93,29.97,10.0,ESE,5.8,-,0.03,Rain,Light Rain,110,2012-03-22 15:53:00
11:53 AM,62.1,57.9,86,29.95,10.0,ESE,6.9,-,0.00,,Overcast,110,2012-03-22 16:53:00
12:53 PM,62.1,59.0,90,29.97,10.0,SSE,10.4,-,0.01,,Overcast,160,2012-03-22 17:53:00
1:00 PM,62.6,57.2,82,29.98,10.0,SSE,12.7,-,N/A,,Overcast,160,2012-03-22 18:00:00
1:53 PM,61.0,57.0,87,29.97,10.0,SSE,11.5,-,N/A,,Overcast,160,2012-03-22 18:53:00
2:53 PM,60.1,57.0,90,29.96,5.0,South,8.1,-,0.01,Rain,Light Rain,170,2012-03-22 19:53:00
3:02 PM,59.0,57.2,94,29.96,3.0,South,10.4,-,0.01,Rain,Light Rain,180,2012-03-22 20:02:00
3:20 PM,59.0,57.2,94,29.95,10.0,SSE,11.5,-,0.01,,Overcast,150,2012-03-22 20:20:00
3:31 PM,60.8,57.2,88,29.95,10.0,SSE,11.5,-,0.01,,Overcast,150,2012-03-22 20:31:00
3:53 PM,60.1,57.9,93,29.94,10.0,SE,10.4,-,0.01,,Overcast,140,2012-03-22 20:53:00
4:01 PM,60.8,57.2,88,29.94,10.0,SE,9.2,-,N/A,,Overcast,130,2012-03-22 21:01:00
4:15 PM,59.0,55.4,88,29.94,10.0,SSE,11.5,-,N/A,,Overcast,150,2012-03-22 21:15:00
4:28 PM,59.0,55.4,88,29.94,10.0,SSE,10.4,-,0.00,,Overcast,160,2012-03-22 21:28:00
4:41 PM,59.0,55.4,88,29.93,10.0,SSE,6.9,-,0.00,Rain,Light Rain,150,2012-03-22 21:41:00
4:47 PM,59.0,55.4,88,29.93,10.0,SSE,9.2,-,0.00,Rain,Light Rain,160,2012-03-22 21:47:00
4:48 PM,59.0,55.9,90,29.94,10.0,SSE,9.2,-,0.00,Rain,Light Rain,160,2012-03-22 21:48:00
4:58 PM,59.0,55.4,88,29.94,10.0,SSE,9.2,-,0.00,,Overcast,160,2012-03-22 21:58:00
5:10 PM,59.0,57.2,94,29.94,10.0,South,10.4,-,0.00,,Overcast,170,2012-03-22 22:10:00
5:25 PM,59.0,55.4,88,29.95,10.0,South,8.1,-,0.00,,Overcast,170,2012-03-22 22:25:00
5:53 PM,59.0,55.0,87,29.95,10.0,SSE,6.9,-,0.00,,Overcast,160,2012-03-22 22:53:00
6:15 PM,59.0,53.6,82,29.95,10.0,SSE,5.8,-,N/A,,Scattered Clouds,160,2012-03-22 23:15:00
6:53 PM,57.9,54.0,87,29.94,10.0,SSE,4.6,-,N/A,,Clear,160,2012-03-22 23:53:00
7:53 PM,54.0,52.0,93,29.94,10.0,ESE,3.5,-,N/A,,Clear,110,2012-03-23 00:53:00
8:53 PM,53.1,51.1,93,29.95,9.0,ESE,4.6,-,N/A,,Clear,110,2012-03-23 01:53:00
9:27 PM,51.8,51.8,100,29.96,10.0,ESE,5.8,-,N/A,,Mostly Cloudy,110,2012-03-23 02:27:00
9:53 PM,52.0,51.1,97,29.96,9.0,East,3.5,-,N/A,,Mostly Cloudy,100,2012-03-23 02:53:00
10:29 PM,51.8,50.0,94,29.95,1.5,ENE,3.5,-,N/A,,Mostly Cloudy,70,2012-03-23 03:29:00
10:31 PM,50.0,50.0,100,29.95,0.8,East,3.5,-,N/A,,Mostly Cloudy,80,2012-03-23 03:31:00
10:48 PM,50.0,48.2,94,29.95,0.2,East,3.5,-,0.01,Fog,Fog,80,2012-03-23 03:48:00
10:53 PM,48.9,48.0,97,29.96,0.2,East,3.5,-,0.01,Fog,Fog,100,2012-03-23 03:53:00
11:53 PM,48.9,48.9,100,29.96,0.2,Calm,Calm,-,N/A,Fog,Fog,0,2012-03-23 04:53:00